This is the latest recevied weather packets stored in our database for station/object KE0TNI-13. If no packets are shown the sender has not sent any weather packets the latest 1 day(s).
| Time | Temp. | Humidity | Pressure | Rain* | Wind** | Luminosity | Snow |
|---|---|---|---|---|---|---|---|
| 1778026216 | -2.22° C | 95% | 1013 hPa | 0 mm | 0 m/s | 5 W/m² | - |
| 1778025913 | -2.22° C | 96% | 1012.6 hPa | 0 mm | 0.45 m/s, 99° | 8 W/m² | - |
| 1778025610 | -2.22° C | 96% | 1013 hPa | 0 mm | 0 m/s | 12 W/m² | - |
| 1778025308 | -2.22° C | 96% | 1012.7 hPa | 0 mm | 0.45 m/s, 259° | 13 W/m² | - |
| 1778025004 | -2.22° C | 96% | 1012.8 hPa | 0 mm | 0 m/s | 14 W/m² | - |
| 1778024702 | -2.22° C | 95% | 1012.3 hPa | 0 mm | 0 m/s | 9 W/m² | - |
| 1778024398 | -2.22° C | 96% | 1012.7 hPa | 0 mm | 0 m/s | 21 W/m² | - |
| 1778024096 | -1.67° C | 96% | 1012.4 hPa | 0 mm | 0 m/s | 22 W/m² | - |
| 1778023793 | -1.67° C | 96% | 1012.6 hPa | 0.51 mm | 0 m/s | 23 W/m² | - |
| 1778023491 | -1.67° C | 96% | 1012.8 hPa | 0.51 mm | 0 m/s | 15 W/m² | - |
| 1778023188 | -1.11° C | 96% | 1012.4 hPa | 0 mm | 0 m/s | 17 W/m² | - |
| 1778022885 | -1.11° C | 96% | 1012.7 hPa | 0 mm | 0 m/s | 13 W/m² | - |
| 1778022583 | -1.11° C | 97% | 1012.7 hPa | 0 mm | 0 m/s | 16 W/m² | - |
| 1778022281 | -1.11° C | 97% | 1012.2 hPa | 0 mm | 0 m/s | 30 W/m² | - |
| 1778021977 | -1.67° C | 97% | 1012.1 hPa | 0 mm | 0.45 m/s, 105° | 22 W/m² | - |
| 1778021674 | -1.67° C | 96% | 1012.4 hPa | 0 mm | 0 m/s | 17 W/m² | - |
| 1778021370 | -1.67° C | 96% | 1011.9 hPa | 0 mm | 0 m/s | 12 W/m² | - |
| 1778021067 | -1.67° C | 96% | 1012.2 hPa | 0 mm | 0 m/s | 8 W/m² | - |
| 1778020764 | -1.67° C | 96% | 1012.3 hPa | 0 mm | 0 m/s | 6 W/m² | - |
| 1778020461 | -1.67° C | 96% | 1012.4 hPa | 0 mm | 0 m/s | 5 W/m² | - |
| 1778020158 | -1.67° C | 96% | 1013 hPa | 0 mm | 0.45 m/s, 106° | 4 W/m² | - |
| 1778019854 | -1.11° C | 96% | 1012.4 hPa | 0 mm | 0.89 m/s, 264° | 5 W/m² | - |
| 1778019550 | -1.11° C | 96% | 1012.2 hPa | 0 mm | 0 m/s | 12 W/m² | - |
| 1778019248 | -1.11° C | 96% | 1012.1 hPa | 0 mm | 0.89 m/s, 88° | 21 W/m² | - |
| 1778018944 | -1.67° C | 96% | 1011.9 hPa | 0 mm | 0 m/s | 20 W/m² | - |
* Rain latest hour (hover to see other rain measurements)
** Current wind speed in m/s (hover to see current wind gust speed)